www.pogodaiklimat.ru

Погода и климат >> Архив погоды >> Пакистан >> Рахим Яр Хан


ПОГОДА в Рахим Яр Хан

  • Прогноз погоды в Рахим Яр Хан
  • Монитор погоды в Рахим Яр Хан

АРХИВ ПОГОДЫ в Рахим Яр Хан

Время (UTC), дата Ветер
(напр.,м/с)
 
Видим.   Явления Облачность Т
(С)
Тd
(С)
f
(%)
Тe
(С)
Тes
(С)
Комфортность P
(гПа)
Po
(гПа)
Тmin
(С)
Tmax
(С)
R
(мм)
R24
(мм)
S
(см)
00 15.09 штиль 0 4000 м ясно +29.0 +24.8 78 +41 +41 опасность
перегрева
1003.4 993.6
03 15.09 З 3 4000 м дым ясно +29.0 +25.5 81 +43 +45 опасность
перегрева
1005.1 995.3 +27.5
06 15.09 З 2 4000 м мгла ясно +34.0 +26.5 65 +51 +66 опасность
перегрева
1005.6 995.9
09 15.09 З 2 4000 м ясно +39.0 +26.8 50 +55 +70 опасность
перегрева
1003.7 994.1
12 15.09 штиль 0 4000 м ясно +39.0 +23.5 41 +49 +52 опасность
перегрева
1001.8 992.2 +40.5
18 15.09 штиль 0 4000 м ясно +31.5 +26.0 73 +47 +47 опасность
перегрева
1004.0 994.2
21 15.09 штиль 0 4000 м ясно +30.0 +25.8 78 +45 +45 опасность
перегрева
1003.6 993.8
00 16.09 штиль 0 4000 м ясно +28.0 +24.4 81 +39 +39 очень
душно
1002.7 992.7
06 16.09 З 3 4000 м ясно +35.0 +25.3 57 +49 +62 опасность
перегрева
1004.1 994.4
12 16.09 З 3 4000 м ясно +38.0 +24.0 45 +49 +51 опасность
перегрева
999.8 990.2 +40.0
15 16.09 штиль 0 4000 м ясно +34.0 +24.9 59 +47 +47 опасность
перегрева
1000.1 990.4
18 16.09 штиль 0 4000 м ясно +30.0 +24.3 72 +42 +42 опасность
перегрева
1001.6 991.8
21 16.09 штиль 0 4000 м ясно +29.0 +24.0 74 +40 +40 очень
душно
1001.1 991.3
00 17.09 штиль 0 4000 м ясно +27.5 +23.9 81 +38 +38 очень
душно
1002.7 992.7
03 17.09 З 2 4000 м дымка 5/5 600 м
[St]
+27.0 +24.9 88 +39 +40 очень
душно
1004.0 994.0 +26.0
06 17.09 З 3 4000 м ясно +33.0 +24.6 61 +46 +58 опасность
перегрева
1004.8 995.0
12 17.09 штиль 0 4000 м ясно +39.0 +22.7 39 +48 +50 опасность
перегрева
1001.4 991.8 +40.0
15 17.09 штиль 0 4000 м ясно +33.0 +26.1 67 +49 +49 опасность
перегрева
1002.4 992.6
18 17.09 штиль 0 4000 м ясно +30.0 +25.1 75 +43 +43 опасность
перегрева
1003.7 993.9
21 17.09 штиль 0 4000 м ясно +28.0 +23.7 77 +38 +38 очень
душно
1003.4 993.4
00 18.09 штиль 0 4000 м ясно +27.0 +23.4 81 +37 +37 очень
душно
1005.1 995.1
03 18.09 ЮЗ 2 4000 м дымка ясно +28.0 +25.2 85 +41 +44 опасность
перегрева
1007.4 997.3 +26.0
06 18.09 З 2 4000 м ясно +34.0 +24.1 56 +46 +61 опасность
перегрева
1008.5 998.7
09 18.09 штиль 0 4000 м ясно +39.0 +22.7 39 +48 +67 опасность
перегрева
1007.0 997.3
12 18.09 штиль 0 4000 м ясно +38.5 +22.9 41 +48 +50 опасность
перегрева
1005.2 995.6 +40.0
15 18.09 штиль 0 4000 м ясно +33.0 +25.3 64 +47 +47 опасность
перегрева
1006.3 996.4
18 18.09 штиль 0 4000 м ясно +31.0 +25.4 72 +45 +45 опасность
перегрева
1007.2 997.2
21 18.09 штиль 0 4000 м ясно +29.0 +25.5 81 +43 +43 опасность
перегрева
1006.7 996.7
00 19.09 штиль 0 4000 м ясно +27.0 +24.1 84 +37 +37 очень
душно
1007.5 997.4
06 19.09 штиль 0 4000 м дым ясно +35.0 +23.7 52 +46 +67 опасность
перегрева
1009.3 999.5
09 19.09 штиль 0 4000 м ясно +40.0 +20.3 32 +45 +64 опасность
перегрева
1007.4 997.8
12 19.09 штиль 0 4000 м ясно +40.0 +20.3 32 +45 +48 опасность
перегрева
1006.0 996.4 +41.0
15 19.09 штиль 0 4000 м ясно +34.0 +23.3 54 +45 +45 опасность
перегрева
1006.2 996.4
18 19.09 штиль 0 4000 м ясно +29.5 +22.2 65 +38 +38 очень
душно
1006.9 996.9
21 19.09 штиль 0 4000 м ясно +28.0 +22.1 70 +36 +36 очень
душно
1006.5 996.4
06 20.09 СВ 3 4000 м дым ясно +35.0 +23.7 52 +46 +58 опасность
перегрева
1007.9 998.1
09 20.09 СВ 3 4000 м ясно +38.0 +23.1 43 +48 +59 опасность
перегрева
1005.7 996.0
12 20.09 СВ 4 4000 м ясно +39.0 +22.7 39 +48 +49 опасность
перегрева
1004.2 994.6 +40.0
15 20.09 СВ 4 4000 м ясно +32.0 +25.0 67 +46 +46 опасность
перегрева
1005.9 996.0
18 20.09 СВ 4 4000 м ясно +30.0 +24.3 72 +42 +42 опасность
перегрева
1006.8 996.8
00 21.09 штиль 0 4000 м ясно +27.0 +23.4 81 +37 +37 очень
душно
1006.8 996.7
03 21.09 СВ 3 4000 м дым ясно +27.0 +24.1 84 +37 +40 очень
душно
1008.4 998.3 +25.5
06 21.09 С 2 4000 м дым ясно +33.5 +25.1 62 +48 +62 опасность
перегрева
1008.8 998.9
12 21.09 СВ 3 4000 м ясно +35.5 +22.6 47 +45 +46 опасность
перегрева
1004.3 994.6 +37.0
18 21.09 штиль 0 4000 м ясно +30.0 +25.1 75 +43 +43 опасность
перегрева
1006.5 996.5

 

Местоположение метеостанции Рахим Яр Хан (Пакистан): широта 28.43 долгота 70.32 высота над уровнем моря 83 м.

В архиве по умолчанию представлена погода в Рахим Яр Хан за последнюю неделю. Архивные данные за месяц целиком и за предыдущие месяцы, начиная с января 2011 года, Вы можете получить, выбрав интересующий диапазон дат из раскрывающегося списка и нажав кнопку "Ввод!".


*Определитесь, кто Вы:
робот инопланетянин человек

Внимание! Время в таблицах - всемирное. Для получения местного времени необходимо прибавить поправку, которая равна 5 ч.

Смотрите также архив погоды в соседних городах и на ближайших метеорологических станциях:

Погода в Ханпуре (Пакистан) (43 км)
Погода в Рохри (Пакистан) (163 км)
Погода в Бархане (Пакистан) (171 км)
Погода в Суккуре (Пакистан) (172 км)
Погода в Бахавалпуре (Пакистан) (178 км)
Погода а Бахавалпур аэропорту (Пакистан) (178 км)
Погода в Джайсалмере (Раджастхан, Индия) (180 км)
Погода в Джейкобабаде (Пакистан) (182 км)
Погода в Дера Гази Хан (Пакистан) (183 км)
Погода в Мултане (Пакистан) (224 км)

Пояснения к столбцам:

Ветер - указаны скорость ветра в м/с - средняя за 10 мин, порывы в срок и между сроками (в фигурных скобках) и направление, откуда дует ветер: С - северный, СВ - северо-восточный, В - восточный, ЮВ - юго-восточный, Ю - южный, ЮЗ - юго-западный, З - западный, СЗ - северо-западный.
Видимость - горизонтальная дальность видимости в метрах или километрах. При видимости от 1 до 10 км при отсутствии осадков обычно наблюдается дымка, при ухудшении видимости до 1 км и менее - туман. В сухую погоду видимость может ухудшаться дымом, пылью или мглою.
Явления - указаны атмосферные явления, наблюдавшиеся в срок или в последний час перед сроком; фигурными скобками обозначены явления, наблюдавшиеся между сроками (за 1-3 часа до срока); квадратными скобками обозначены град или гололедные отложения с указанием их диаметра в мм.
Облачность - указаны через наклонную черту общая и нижняя облачность в баллах и высота нижней границы облаков в метрах; квадратными скобками обозначены формы облаков: Ci - перистые, Cs - перисто-слоистые, Cc - перисто-кучевые, Ac - высококучевые, As - высокослоистые, Sc - слоисто-кучевые, Ns - слоисто-дождевые, Cu - кучевые, Cb - кучево-дождевые. Подробнее классификацию облаков см. в Атласе облаков (PDF).
T - Температура воздуха - температура, измеренная на высоте 2 м над землей.
Td - Температура точки росы - температура, при понижении до которой содержащийся в воздухе водяной пар достигнет насыщения.
f - Относительная влажность воздуха - влажноcть воздуха, измеренная на высоте 2 м над землей.
Te - Эффективная температура - температура, которую ощущает одетый по сезону человек в тени. Характеристика душности погоды. При расчете учитывается влияние влажности воздуха и скорости ветра на теплоощущения человека.
Tes - Эффективная температура на солнце - температура, которую ощущает человек, с поправкой на солнечный нагрев. Характеристика знойности погоды. Зависит от высоты солнца над горизонтом, облачности и скорости ветра. Ночью, в пасмурную погоду, а также при ветре 12 м/с и более поправка равна нулю.
P - Атмосферное давление - приведенное к уровню моря атмосферное давление.
Po - Атмосферное давление - измеренное на уровне метеостанции атмосферное давление.
Tmin - Минимальная температура - минимум температуры воздуха на высоте 2 м над землей.
Tmax - Максимальная температура - максимум температуры воздуха на высоте 2 м над землей.
R - Количество осадков - Количество выпавших осадков за период времени, мм. При наведении курсора мыши на число - период времени, за который выпало указанное количество осадков.
R24 - Количество осадков - Количество выпавших осадков за 24 часа, мм.
S - Снежный покров - Высота снежного покрова, см. При наведении курсора мыши на число - состояние снежного покрова и степень покрытия местности в баллах.